This demonstration page uses our WeatherBlox Daily Observations layout. Learn more.

Left ArrowRight Arrow

47.50024, -111.30081

Hourly Observations for June 8, 2020

Temp ( °F °C ) Dew Point ( °F °C ) Humidity (%) Winds ( mph kmh ) Pressure ( in mb ) Visibility ( mi km ) Precip ( " mm )
12:53 am 00:53 Cloudy 48 8.9 44 6.7 86 86 NNE 7 11 29.73 1007 10 16 0.00 0.00
1:47 am 01:47 Cloudy 46 8 45 7 93 93 N 7 11 29.74 1007 10 16 0.00 0.00
1:48 am 01:48 Cloudy 47 8.3 44 6.7 90 90 NNE 6 9 29.73 1007 10 16 0.00 0.00
1:57 am 01:57 Cloudy 47 8.3 44 6.7 90 90 NNE 8 13 29.74 1007 10 16 0.00 0.00
2:12 am 02:12 Cloudy 47 8.3 44 6.7 90 90 NNE 8 13 29.74 1007 10 16 0.00 0.00
2:34 am 02:34 Cloudy with Nearby Thunderstorms 47 8.3 43 6.1 86 86 NNE 10 17 29.73 1007 10 16 0.00 0.00
2:46 am 02:46 Mostly Cloudy with Nearby Thunderstorms 47 8.3 43 6.1 86 86 N 9 15 29.74 1007 10 16 0.00 0.00
2:53 am 02:53 Mostly Cloudy 47 8.3 43 6.1 86 86 NNE 8 13 29.72 1006 10 16 0.00 0.00
3:41 am 03:41 Cloudy with Light Rain 46 7.8 42 5.6 86 86 N 9 15 29.76 1008 7 11 0.03 0.76
3:53 am 03:53 Cloudy with Light Rain 46 7.8 42 5.6 86 86 NNE 7 11 29.74 1007 9 14 0.04 1.02
4:01 am 04:01 Cloudy with Light Rain 46 7.8 42 5.6 86 86 NNE 8 13 29.76 1008 9 14 0.01 0.25
4:53 am 04:53 Cloudy with Rain 44 6.7 41 5 89 89 N 8 13 29.75 1008 5 8 0.06 1.52
5:18 am 05:18 Cloudy with Light Rain 44 6.7 41 5 89 89 N 6 9 29.78 1009 9 14 0.04 1.02
5:44 am 05:44 Cloudy 45 7.2 42 5.6 90 90 NW 5 7 29.79 1009 10 16 0.04 1.02
5:53 am 05:53 Cloudy 45 7.2 42 5.6 90 90 NW 5 7 29.77 1008 10 16 0.04 1.02
6:06 am 06:06 Cloudy 45 7.2 42 5.6 90 90 Calm 29.79 1009 10 16 0.00 0.00
6:15 am 06:15 Cloudy 45 7.2 42 5.6 90 90 NNE 3 6 29.80 1009 10 16 0.00 0.00
6:23 am 06:23 Cloudy 45 7.2 42 5.6 90 90 N 3 6 29.80 1009 10 16 0.00 0.00
6:31 am 06:31 Cloudy 46 7.8 42 5.6 86 86 Calm 29.79 1009 10 16 0.00 0.00
6:49 am 06:49 Cloudy with Light Rain 46 8 43 6 87 87 S 8 13 29.78 1009 10 16 0.00 0.00
6:51 am 06:51 Cloudy with Light Rain 45 7 43 6 93 93 SSE 7 11 29.80 1009 9 14 0.00 0.00
6:53 am 06:53 Cloudy with Light Rain 45 7.2 42 5.6 90 90 SSE 5 7 29.81 1009 8 13 0.00 0.00
7:00 am 07:00 Cloudy with Light Rain 45 7.2 42 5.6 90 90 Calm 29.81 1009 5 8 0.00 0.00
7:53 am 07:53 Cloudy with Rain 44 6.7 42 5.6 93 93 NW 9 15 29.82 1010 6 10 0.04 1.02
7:59 am 07:59 Cloudy with Light Rain 44 6.7 42 5.6 93 93 NW 9 15 29.81 1010 6 10 0.01 0.25
8:44 am 08:44 Cloudy with Light Rain 45 7.2 42 5.6 90 90 NNW 10 17 29.83 1010 10 16 0.03 0.76
8:51 am 08:51 Cloudy with Light Rain 45 7 43 6 93 93 N 7 11 29.83 1010 10 16 0.03 0.76
8:53 am 08:53 Cloudy with Light Rain 45 7.2 42 5.6 90 90 N 6 9 29.85 1011 10 16 0.03 0.76
9:03 am 09:03 Cloudy with Light Rain 44 6.7 40 4.4 85 85 NE 7 11 29.83 1010 10 16 0.00 0.00
9:15 am 09:15 Cloudy with Light Rain 44 6.7 40 4.4 85 85 NNE 5 7 29.83 1010 10 16 0.00 0.00
9:53 am 09:53 Cloudy with Light Rain 45 7.2 40 4.4 83 83 N 3 6 29.85 1011 8 13 0.02 0.51
10:11 am 10:11 Cloudy with Light Rain 46 7.8 42 5.6 86 86 NNE 7 11 29.84 1010 7 11 0.01 0.25
10:25 am 10:25 Cloudy 46 7.8 41 5 83 83 N 7 11 29.84 1010 10 16 0.01 0.25
10:53 am 10:53 Cloudy with Light Rain 46 7.8 41 5 83 83 N 5 7 29.88 1012 10 16 0.01 0.25
11:53 am 11:53 Cloudy 49 9.4 40 4.4 71 71 NW 5 7 29.88 1012 10 16 0.00 0.00
12:53 pm 12:53 Cloudy 50 10 41 5 71 71 WNW 6 9 29.89 1012 10 16 0.00 0.00
1:00 pm 13:00 Cloudy 51 10.6 42 5.6 71 71 W 7 11 29.83 1010 10 16 0.00 0.00
1:24 pm 13:24 Cloudy with Rain 46 7.8 41 5 83 83 NNW 6 9 29.88 1012 2 3 0.04 1.02
1:36 pm 13:36 Cloudy with Light Rain 47 8.3 43 6.1 86 86 VRB 5 7 29.87 1012 3 5 0.07 1.78
1:53 pm 13:53 Cloudy 50 10 43 6.1 77 77 W 8 13 29.89 1012 10 16 0.07 1.78
2:34 pm 14:34 Cloudy 51 10.6 43 6.1 74 74 N 14 22 29.85 1011 10 16 0.00 0.00
2:36 pm 14:36 Cloudy 51 10.6 43 6.1 74 74 NNW 12 19 29.85 1011 10 16 0.00 0.00
2:53 pm 14:53 Mostly Cloudy 53 11.7 44 6.7 72 72 NNW 10 17 29.90 1013 10 16 0.00 0.00
3:53 pm 15:53 Mostly Cloudy 53 11.7 42 5.6 66 66 NNW 12 19 29.92 1013 10 16 0.00 0.00
4:53 pm 16:53 Cloudy 52 11.1 41 5 66 66 NNW 10 17 29.96 1014 10 16 0.00 0.00
5:02 pm 17:02 Cloudy 52 11.1 40 4.4 64 64 NW 10 17 29.88 1012 10 16 0.00 0.00
5:09 pm 17:09 Cloudy 53 11.7 40 4.4 61 61 NW 10 17 29.88 1012 10 16 0.00 0.00
5:53 pm 17:53 Mostly Sunny 55 12.8 40 4.4 57 57 WNW 13 20 29.96 1015 10 16 0.00 0.00
6:53 pm 18:53 Cloudy 53 11.7 41 5 64 64 WNW 6 9 29.98 1015 10 16 0.00 0.00
7:53 pm 19:53 Cloudy 52 11.1 41 5 66 66 SW 10 17 30.01 1016 10 16 0.00 0.00
8:53 pm 20:53 Cloudy 52 11.1 41 5 66 66 WSW 10 17 30.02 1017 10 16 0.00 0.00
9:53 pm 21:53 Cloudy 50 10 36 2.2 59 59 W 10 17 30.05 1018 10 16 0.00 0.00
10:53 pm 22:53 Mostly Clear 44 6.7 34 1.1 68 68 SW 10 17 30.07 1018 10 16 0.00 0.00
11:53 pm 23:53 Clear 43 6.1 34 1.1 71 71 SW 12 19 30.07 1018 10 16 0.00 0.00

Powered by AerisWeather